STARLINK-38015, 69726

Orbit data source: Space-Track

STARLINK-38015, 69726 is a payload satellite owned by SpaceX/Seattle (US) in SSO that was launched on Sun, 28 Jun 2026 UTC via an FALCON 9 launch vehicle from the Air Force Western Test Range (AFWTR). Payload-class satellites include a variety of spacecraft equipped with specific instruments for various scientific and technological missions. These include communications satellites like Starlink; space stations such as the ISS; scientific satellites like the Hubble; Earth observation satellites from companies like Planet Labs, Umbra, and HawkEye 360; GPS; miniature CubeSats for education and research; and military/defense satellites.

Loading next visibility...
Identifier
69726, 2026-147Y
Orbit
SSO
Country
Flag of USUS
Related business
Manufacturer
SpaceX/Seattle
Mission
Operational spacecraft
Bus & Motor
STARLINK V2MO, Unknown motor
Mass
575 kg wet, ~530 kg dry
Launch date (UTC)
2026-06-28 (2 weeks ago)
Launch vehicle
FALCON 9
Launch site
Air Force Western Test Range (AFWTR)
Object type
Payload
Rocket body
Debris
Shape & HBR
Unknown shape, 17.7 m
Radar Cross Section
Large (>1 m²)

Expand to show TLE details & history
Last TLE update: 8 hours ago

TLE from 8 hours ago
0 STARLINK-38015
1 69726U 26147Y   26193.05086034  .00117871  00000-0  60660-3 0  9993
2 69726  97.2832 229.2944 0001157 101.8323 258.3075 15.80860274  3360
Epoch: 2026-07-12T01:13Z
TLE epoch observation values (Epoch: 2026-07-12T01:13:14.333Z)
Latitude
-0.00002°
Longitude
-78.9706°
Altitude
331.34 km
Speed
7.71 km/s
True Right ascension
15h 17m 10s
True Declination
0° 00' 00"
Sunlit
Object was in full shadow at epoch
Visualization orbit readout
Latitude
Unknown
Longitude
Unknown
Altitude
Unknown
Speed
Unknown
Apparent Right ascension
Unknown
Apparent Declination
Unknown
Sunlit
N/A
Visualization observer readout
Local Sidereal Time
21:45:55
Azimuth
Unknown
Elevation
Unknown
Doppler factor
Unknown
Orbital elements
Apogee altitude
325.662 km
Perigee altitude
324.111 km
Semi-major axis
6,703.023 km
Eccentricity
0.00012
Inclination
97.2832°
RAAN
229.2944°
Arg. of periapsis
101.8323°
True anomaly
258.29452°
Mean anomaly
258.3075°
Eccentric anomaly
258.30101°
Mean motion
3.95491 °/min
Orbital period
91.03 mins
BSTAR
0.0006066
Loading maneuver chart data...
Computing Atmospheric mass density...
Loading historical data...
Loading historical data...
Loading historical data...
Loading historical data...
Loading historical data...
Loading historical data...
Loading historical data...

Documentation

Showing up to 5 results
|